TimePST,TemperatureF,Dew PointF,Humidity,Sea Level PressureIn,VisibilityMPH,Wind Direction,Wind SpeedMPH,Gust SpeedMPH,PrecipitationIn,Events,Conditions,WindDirDegrees,DateUTC
12:00 AM,30.2,19.4,64,30.13,15.0,ENE,16.1,21.9,N/A,,Overcast,70,2014-02-24 08:00:00
1:00 AM,32.0,19.4,60,30.14,15.0,ENE,17.3,25.3,N/A,,Overcast,70,2014-02-24 09:00:00
2:00 AM,32.0,19.4,60,30.14,15.0,ENE,15.0,25.3,N/A,,Overcast,70,2014-02-24 10:00:00
3:00 AM,32.0,17.6,55,30.12,15.0,ENE,15.0,-,N/A,,Overcast,60,2014-02-24 11:00:00
4:00 AM,32,19,45,30.13,15,ENE,13.8,,,,Partly Cloudy,70,2014-02-24 12:00:00
4:00 AM,32.0,19.4,60,30.13,15.0,ENE,13.8,20.7,N/A,,Overcast,70,2014-02-24 12:00:00
5:00 AM,32.0,19.4,60,30.13,15.0,ENE,11.5,20.7,N/A,,Overcast,70,2014-02-24 13:00:00
5:46 AM,32.0,19.4,60,30.13,10.0,ENE,11.5,-,N/A,Snow,Light Snow,70,2014-02-24 13:46:00
6:00 AM,32.0,17.6,55,30.14,10.0,ENE,13.8,-,N/A,Snow,Light Snow,70,2014-02-24 14:00:00
6:54 AM,30.2,21.2,69,30.14,2.5,ENE,13.8,-,N/A,Snow,Light Snow,60,2014-02-24 14:54:00
7:00 AM,30.2,21.2,69,30.14,2.2,ENE,18.4,25.3,N/A,Snow,Light Snow,70,2014-02-24 15:00:00
7:22 AM,30.2,23.0,75,30.14,1.5,NE,16.1,-,N/A,Snow,Light Snow,50,2014-02-24 15:22:00
8:00 AM,30.2,23.0,75,30.14,1.5,ENE,12.7,19.6,N/A,Snow,Light Snow,60,2014-02-24 16:00:00
9:00 AM,30.2,23.0,75,30.15,1.0,East,12.7,-,N/A,Snow,Light Snow,80,2014-02-24 17:00:00
9:15 AM,28.4,24.8,86,30.15,0.8,ENE,12.7,-,N/A,Snow,Light Snow,70,2014-02-24 17:15:00
10:00 AM,30,26,78,30.14,1,ENE,9.2,,,Snow,Light Snow,60,2014-02-24 18:00:00
10:00 AM,30.2,26.6,86,30.14,1.0,ENE,8.1,-,N/A,Snow,Light Snow,60,2014-02-24 18:00:00
10:37 AM,30.2,24.8,80,30.14,1.2,ENE,12.7,-,N/A,Snow,Light Snow,70,2014-02-24 18:37:00
11:00 AM,30.2,24.8,80,30.14,1.5,ENE,12.7,18.4,N/A,Snow,Light Snow,70,2014-02-24 19:00:00
12:00 PM,30.2,24.8,80,30.14,1.0,ENE,12.7,-,N/A,Snow,Light Snow,60,2014-02-24 20:00:00
12:38 PM,32.0,24.8,75,30.13,0.8,ENE,12.7,19.6,N/A,Snow,Light Snow,60,2014-02-24 20:38:00
1:00 PM,32.0,24.8,75,30.13,0.8,ENE,11.5,17.3,N/A,Snow,Light Snow,70,2014-02-24 21:00:00
2:00 PM,32.0,26.6,80,30.13,0.8,ENE,11.5,-,N/A,Snow,Light Snow,70,2014-02-24 22:00:00
2:32 PM,30.2,28.4,93,30.14,0.6,ENE,11.5,-,N/A,Snow,Light Snow,70,2014-02-24 22:32:00
3:00 PM,30.2,28.4,93,30.14,0.6,ENE,11.5,-,N/A,Snow,Light Snow,70,2014-02-24 23:00:00
4:00 PM,32,29,83,30.15,1,ENE,9.2,,,Snow,Light Snow,70,2014-02-25 00:00:00
4:00 PM,32.0,28.4,87,30.15,0.6,ENE,12.7,-,N/A,Snow,Light Snow,70,2014-02-25 00:00:00
5:00 PM,32.0,28.4,87,30.14,0.6,ENE,10.4,-,N/A,Snow,Light Snow,60,2014-02-25 01:00:00
6:00 PM,32.0,28.4,87,30.15,0.6,ENE,10.4,-,N/A,Snow,Light Snow,60,2014-02-25 02:00:00
6:37 PM,32.0,28.4,87,30.15,7.0,ENE,10.4,-,N/A,Rain-Snow,Light Snow,60,2014-02-25 02:37:00
7:00 PM,32.0,28.4,87,30.16,7.0,ENE,11.5,-,N/A,Rain-Snow,Light Snow,60,2014-02-25 03:00:00
8:00 PM,33.8,28.4,81,30.16,8.0,ENE,10.4,-,N/A,Rain,Light Ice Pellets,60,2014-02-25 04:00:00
8:14 PM,32.0,26.6,80,30.16,8.0,ENE,13.8,19.6,N/A,Snow,Light Snow,60,2014-02-25 04:14:00
9:00 PM,33.8,24.8,70,30.17,15.0,ENE,15.0,24.2,N/A,Snow,Light Snow,60,2014-02-25 05:00:00
10:00 PM,35,24,51,30.18,15,NE,15.0,,,Snow,Light Snow,50,2014-02-25 06:00:00
10:00 PM,35.6,23.0,60,30.18,15.0,NE,15.0,24.2,N/A,,Overcast,50,2014-02-25 06:00:00
10:21 PM,35.6,23.0,60,30.17,15.0,NE,15.0,24.2,N/A,,Light Ice Pellets,50,2014-02-25 06:21:00
10:49 PM,35.6,23.0,60,30.18,15.0,NE,13.8,24.2,N/A,,Overcast,50,2014-02-25 06:49:00
11:00 PM,35.6,23.0,60,30.18,15.0,ENE,11.5,19.6,N/A,,Mostly Cloudy,60,2014-02-25 07:00:00